Location: Heathcote
(40.9845°N, 73.7746°W)
Time: 03:59:19
(UTC+00:00)

ARGOS - Pass Details

Date: 29 October 2020
Orbit: 820 x 835 km, 98.4° (Epoch: 23 November)

Event Time Altitude Azimuth Distance (km) Brightness Sun altitude
Exits shadow 23:21:55 28° 89° (E) 1,518 3.9 -17.1°
Maximum altitude 23:23:03 31° 67° (ENE) 1,440 3.9 -17.3°
Drops below altitude 10° 23:27:45 10° 7° (N) 2,455 5.5 -18.2°
Sets 23:30:20 0° 357° (N) 3,393 6.4 -18.7°
